sat.trackr.live / text

‹ back to catalog

STARLINK-4147

NORAD 53256 · 2022-086Q

PAYLOAD ACTIVE UNKNOWN

§ Identity

Operator
Country
US
Launch date
2022-07-24
Launch site
AFETR
Launch vehicle
Mass (kg)
RCS (m²)

Purposes: comms

External: N2YO · Heavens-Above · Gunter

§ Orbital elements

Epoch: 2026-09-20T04:00:03.000096Z

Period
93.90 min
Inclination
53.1598°
Eccentricity
0.0000659
Mean motion
15.33476160 rev/d
Perigee alt
465.0 km
Apogee alt
465.9 km
Semi-major
6,843.6 km
B*
1.7803e-3
RAAN
38.8230°
Arg perigee
98.0948°
Mean anomaly
315.9292°
Rev number
578

§ Raw data

STARLINK-41471 53256U 22086Q   26263.16670139  .00058499  00000+0  17803-2 0  99962 53256  53.1598  38.8230 0000659  98.0948 315.9292 15.33476160  5783

JSON: /api/v1/satellites/53256 · /tle

For live sub-satellite position, see the globe view (requires WebGL).

§ Visibility from observer

Set your observer location to see the next 7 days of passes ≥ 10°. The values pass through the URL so the page stays shareable.

No JS? Fill the form by hand. The geolocation button needs JavaScript.